EW7518 Weather Reports


time (UTC)temp
C
wind
direction
speed
KPH
gust
KPH
rain 1hr
cm
rain 24hr
cm
rain mn
cm
humidity
%
barometer
mb
20181018153707 15 0 6.4 12.9 0.00 0.15 0.10 80 1005.0
20181018153209 15 19 8.0 14.5 0.00 0.15 0.10 81 1005.0
20181018152707 15 355 8.0 14.5 0.00 0.15 0.10 80 1004.9
20181018152210 15 294 6.4 14.5 0.00 0.15 0.10 81 1004.9
20181018151706 15 292 4.8 11.3 0.00 0.15 0.10 82 1004.9
20181018151210 15 322 4.8 11.3 0.00 0.15 0.10 81 1005.0
20181018150706 15 327 4.8 14.5 0.00 0.15 0.10 79 1005.0
20181018150211 15 335 6.4 14.5 0.00 0.15 0.10 76 1005.0
20181018145707 15 351 8.0 14.5 0.00 0.15 0.10 75 1004.8
20181018145215 16 5 8.0 14.5 0.00 0.15 0.10 75 1004.8
20181018144706 16 338 8.0 14.5 0.00 0.15 0.10 73 1004.8
20181018144209 16 13 6.4 16.1 0.00 0.15 0.10 74 1004.5
20181018143707 16 348 6.4 16.1 0.00 0.15 0.10 75 1004.5
20181018143209 16 11 6.4 16.1 0.00 0.15 0.10 74 1004.5
20181018142707 16 355 6.4 14.5 0.00 0.15 0.10 74 1004.5
20181018142209 16 355 6.4 14.5 0.00 0.15 0.10 74 1004.5
20181018141707 16 5 4.8 14.5 0.00 0.15 0.10 74 1004.5
20181018141208 16 333 6.4 12.9 0.00 0.15 0.10 75 1004.5
20181018140708 16 355 6.4 17.7 0.00 0.15 0.10 75 1004.5
20181018140210 16 351 6.4 17.7 0.00 0.15 0.10 75 1004.5
20181018135708 16 19 6.4 17.7 0.00 0.15 0.10 75 1004.6
20181018135215 16 339 4.8 11.3 0.00 0.15 0.10 75 1004.6
20181018134708 16 322 4.8 11.3 0.00 0.15 0.10 76 1004.6
20181018134209 16 355 4.8 12.9 0.00 0.15 0.10 76 1004.7
20181018133717 16 323 4.8 14.5 0.00 0.15 0.10 76 1004.7
20181018133208 16 9 4.8 14.5 0.00 0.15 0.10 76 1004.7
20181018132707 16 10 4.8 14.5 0.00 0.15 0.10 76 1004.8
20181018132210 16 30 6.4 14.5 0.00 0.15 0.10 76 1004.8
20181018131708 16 36 6.4 16.1 0.00 0.15 0.10 76 1004.8
20181018131213 16 323 6.4 16.1 0.00 0.15 0.10 76 1004.9
20181018130707 16 16 6.4 16.1 0.00 0.15 0.10 75 1004.9
20181018130215 16 22 4.8 14.5 0.00 0.15 0.10 75 1004.9
20181018125707 16 12 6.4 14.5 0.00 0.15 0.10 76 1004.9
20181018125213 16 15 4.8 14.5 0.00 0.15 0.10 75 1004.9
20181018124707 16 348 3.2 16.1 0.00 0.15 0.10 75 1004.9
20181018124209 16 342 4.8 17.7 0.00 0.15 0.10 75 1004.9
20181018123706 16 350 6.4 17.7 0.00 0.15 0.10 76 1004.9
20181018123210 16 348 6.4 16.1 0.00 0.15 0.10 76 1004.9
20181018122708 16 355 4.8 11.3 0.00 0.15 0.10 77 1004.8
20181018122209 16 347 4.8 12.9 0.00 0.15 0.10 77 1004.8
20181018121707 16 321 4.8 14.5 0.00 0.15 0.10 79 1004.8
20181018121209 15 42 4.8 16.1 0.00 0.15 0.10 79 1005.2
20181018120706 15 350 6.4 16.1 0.00 0.15 0.10 80 1005.2
20181018120209 15 355 8.0 16.1 0.00 0.15 0.10 78 1005.2
20181018115708 15 30 6.4 12.9 0.00 0.15 0.10 77 1005.4